Time,TemperatureF,DewpointF,PressureIn,WindDirection,WindDirectionDegrees,WindSpeedMPH,WindSpeedGustMPH,Humidity,HourlyPrecipIn,Conditions,Clouds,dailyrainin,SoftwareType,DateUTC
2013-03-24 00:03:00,33.0,21.0,29.94,NE,44,3.0,10.0,62,0.00,,,0.00,,2013-03-24 04:03:00,
2013-03-24 00:13:00,33.0,21.0,29.94,NE,44,3.0,10.0,62,0.00,,,0.00,,2013-03-24 04:13:00,
2013-03-24 00:23:00,33.0,22.0,29.93,ENE,62,2.0,7.0,64,0.00,,,0.00,,2013-03-24 04:23:00,
2013-03-24 00:33:00,32.0,22.0,29.93,East,87,2.0,7.0,65,0.00,,,0.00,,2013-03-24 04:33:00,
2013-03-24 00:43:00,32.0,22.0,29.93,East,87,2.0,7.0,65,0.00,,,0.00,,2013-03-24 04:43:00,
2013-03-24 00:52:00,32.0,22.0,29.93,North,351,1.0,6.0,66,0.00,,,0.00,,2013-03-24 04:52:00,
2013-03-24 01:03:00,31.0,21.0,29.91,NE,46,2.0,7.0,67,0.00,,,0.00,,2013-03-24 05:03:00,
2013-03-24 01:13:00,31.0,21.0,29.91,NE,46,2.0,7.0,67,0.00,,,0.00,,2013-03-24 05:13:00,
2013-03-24 01:22:00,31.0,21.0,29.89,NW,316,1.0,7.0,67,0.00,,,0.00,,2013-03-24 05:22:00,
2013-03-24 01:32:00,31.0,21.0,29.92,South,172,2.0,5.0,67,0.00,,,0.00,,2013-03-24 05:32:00,
2013-03-24 01:43:00,31.0,21.0,29.92,South,172,2.0,5.0,67,0.00,,,0.00,,2013-03-24 05:43:00,
2013-03-24 01:52:00,30.0,21.0,29.91,SSW,196,1.0,5.0,69,0.00,,,0.00,,2013-03-24 05:52:00,
2013-03-24 02:02:00,30.0,21.0,29.91,ENE,77,1.0,5.0,69,0.00,,,0.00,,2013-03-24 06:02:00,
2013-03-24 02:12:00,30.0,21.0,29.91,ENE,77,1.0,5.0,69,0.00,,,0.00,,2013-03-24 06:12:00,
2013-03-24 02:22:00,30.0,21.0,29.90,SSW,201,0.0,3.0,69,0.00,,,0.00,,2013-03-24 06:22:00,
2013-03-24 02:32:00,30.0,21.0,29.89,SSE,159,1.0,5.0,70,0.00,,,0.00,,2013-03-24 06:32:00,
2013-03-24 02:42:00,30.0,21.0,29.89,SSE,159,1.0,5.0,70,0.00,,,0.00,,2013-03-24 06:42:00,
2013-03-24 02:52:00,30.0,22.0,29.89,SSW,200,0.0,7.0,71,0.00,,,0.00,,2013-03-24 06:52:00,
2013-03-24 03:02:00,29.0,21.0,29.88,SSE,157,1.0,5.0,72,0.00,,,0.00,,2013-03-24 07:02:00,
2013-03-24 03:12:00,29.0,21.0,29.88,SSE,157,1.0,5.0,72,0.00,,,0.00,,2013-03-24 07:12:00,
2013-03-24 03:22:00,29.0,21.0,29.89,East,91,2.0,5.0,71,0.00,,,0.00,,2013-03-24 07:22:00,
2013-03-24 03:32:00,30.0,21.0,29.89,SSE,162,2.0,5.0,70,0.00,,,0.00,,2013-03-24 07:32:00,
2013-03-24 03:42:00,30.0,21.0,29.89,SSE,162,2.0,5.0,70,0.00,,,0.00,,2013-03-24 07:42:00,
2013-03-24 03:52:00,29.0,21.0,29.89,West,259,1.0,4.0,71,0.00,,,0.00,,2013-03-24 07:52:00,
2013-03-24 04:03:00,30.0,21.0,29.90,North,5,0.0,5.0,70,0.00,,,0.00,,2013-03-24 08:03:00,
2013-03-24 04:12:00,30.0,21.0,29.90,North,5,0.0,5.0,70,0.00,,,0.00,,2013-03-24 08:12:00,
2013-03-24 04:22:00,30.0,21.0,29.90,SE,146,1.0,8.0,69,0.00,,,0.00,,2013-03-24 08:22:00,
2013-03-24 04:32:00,30.0,20.0,29.91,NE,50,1.0,5.0,67,0.00,,,0.00,,2013-03-24 08:32:00,
2013-03-24 04:42:00,30.0,20.0,29.91,NE,50,1.0,5.0,67,0.00,,,0.00,,2013-03-24 08:42:00,
2013-03-24 04:52:00,30.0,20.0,29.90,NNE,33,1.0,4.0,67,0.00,,,0.00,,2013-03-24 08:52:00,
2013-03-24 05:02:00,30.0,20.0,29.89,South,174,1.0,6.0,67,0.00,,,0.00,,2013-03-24 09:02:00,
2013-03-24 05:12:00,30.0,20.0,29.89,South,174,1.0,6.0,67,0.00,,,0.00,,2013-03-24 09:12:00,
2013-03-24 05:22:00,30.0,20.0,29.88,SE,140,0.0,5.0,67,0.00,,,0.00,,2013-03-24 09:22:00,
2013-03-24 05:33:00,30.0,20.0,29.88,SSW,195,0.0,6.0,66,0.00,,,0.00,,2013-03-24 09:33:00,
2013-03-24 05:42:00,30.0,20.0,29.88,SSW,195,0.0,6.0,66,0.00,,,0.00,,2013-03-24 09:42:00,
2013-03-24 05:52:00,30.0,20.0,29.85,South,185,2.0,4.0,65,0.00,,,0.00,,2013-03-24 09:52:00,
2013-03-24 06:03:00,30.0,19.0,29.85,ENE,72,2.0,5.0,64,0.00,,,0.00,,2013-03-24 10:03:00,
2013-03-24 06:12:00,30.0,19.0,29.85,ENE,72,2.0,5.0,64,0.00,,,0.00,,2013-03-24 10:12:00,
2013-03-24 06:23:00,30.0,19.0,29.85,NE,49,1.0,5.0,64,0.00,,,0.00,,2013-03-24 10:23:00,
2013-03-24 06:33:00,30.0,19.0,29.86,SSW,196,1.0,6.0,64,0.00,,,0.00,,2013-03-24 10:33:00,
2013-03-24 06:42:00,30.0,19.0,29.86,SSW,196,1.0,6.0,64,0.00,,,0.00,,2013-03-24 10:42:00,
2013-03-24 06:52:00,30.0,20.0,29.85,South,186,2.0,4.0,65,0.00,,,0.00,,2013-03-24 10:52:00,
2013-03-24 07:03:00,30.0,20.0,29.85,SE,146,0.0,5.0,66,0.00,,,0.00,,2013-03-24 11:03:00,
2013-03-24 07:12:00,30.0,20.0,29.85,SE,146,0.0,5.0,66,0.00,,,0.00,,2013-03-24 11:12:00,
2013-03-24 07:22:00,30.0,20.0,29.85,North,10,2.0,6.0,66,0.00,,,0.00,,2013-03-24 11:22:00,
2013-03-24 07:33:00,30.0,20.0,29.85,South,176,1.0,6.0,66,0.00,,,0.00,,2013-03-24 11:33:00,
2013-03-24 07:42:00,30.0,20.0,29.85,South,176,1.0,6.0,66,0.00,,,0.00,,2013-03-24 11:42:00,
2013-03-24 07:52:00,30.0,20.0,29.85,SW,220,2.0,6.0,66,0.00,,,0.00,,2013-03-24 11:52:00,
2013-03-24 08:03:00,30.0,20.0,29.84,South,183,2.0,7.0,66,0.00,,,0.00,,2013-03-24 12:03:00,
2013-03-24 08:12:00,30.0,20.0,29.84,South,183,2.0,7.0,66,0.00,,,0.00,,2013-03-24 12:12:00,
2013-03-24 08:22:00,30.0,20.0,29.83,SE,142,3.0,7.0,66,0.00,,,0.00,,2013-03-24 12:22:00,
2013-03-24 08:32:00,30.0,20.0,29.82,NE,42,1.0,6.0,65,0.00,,,0.00,,2013-03-24 12:32:00,
2013-03-24 08:42:00,30.0,20.0,29.82,NE,42,1.0,6.0,65,0.00,,,0.00,,2013-03-24 12:42:00,
2013-03-24 08:52:00,30.0,19.0,29.81,North,355,0.0,7.0,64,0.00,,,0.00,,2013-03-24 12:52:00,
2013-03-24 09:02:00,31.0,20.0,29.80,South,177,2.0,7.0,63,0.00,,,0.00,,2013-03-24 13:02:00,
2013-03-24 09:13:00,31.0,20.0,29.80,South,177,2.0,7.0,63,0.00,,,0.00,,2013-03-24 13:13:00,
2013-03-24 09:22:00,32.0,20.0,29.79,ENE,74,2.0,6.0,62,0.00,,,0.00,,2013-03-24 13:22:00,
2013-03-24 09:32:00,32.0,20.0,29.79,SW,230,3.0,7.0,62,0.00,,,0.00,,2013-03-24 13:32:00,
2013-03-24 09:42:00,32.0,20.0,29.79,SW,230,3.0,7.0,62,0.00,,,0.00,,2013-03-24 13:42:00,
2013-03-24 09:52:00,32.0,21.0,29.78,NNE,26,4.0,8.0,63,0.00,,,0.00,,2013-03-24 13:52:00,
2013-03-24 10:02:00,33.0,21.0,29.77,NNE,29,2.0,8.0,62,0.00,,,0.00,,2013-03-24 14:02:00,
2013-03-24 10:12:00,33.0,21.0,29.77,NNE,29,2.0,8.0,62,0.00,,,0.00,,2013-03-24 14:12:00,
2013-03-24 10:22:00,33.0,21.0,29.77,SSE,158,1.0,7.0,62,0.00,,,0.00,,2013-03-24 14:22:00,
2013-03-24 10:32:00,34.0,22.0,29.75,NE,40,1.0,7.0,62,0.00,,,0.00,,2013-03-24 14:32:00,
2013-03-24 10:42:00,34.0,22.0,29.75,NE,40,1.0,7.0,62,0.00,,,0.00,,2013-03-24 14:42:00,
2013-03-24 10:53:00,34.0,22.0,29.73,ENE,74,3.0,7.0,60,0.00,,,0.00,,2013-03-24 14:53:00,
2013-03-24 11:02:00,35.0,22.0,29.72,NE,39,3.0,10.0,59,0.00,,,0.00,,2013-03-24 15:02:00,
2013-03-24 11:12:00,35.0,22.0,29.72,NE,39,3.0,10.0,59,0.00,,,0.00,,2013-03-24 15:12:00,
2013-03-24 11:22:00,36.0,22.0,29.73,NE,45,4.0,11.0,57,0.00,,,0.00,,2013-03-24 15:22:00,
2013-03-24 11:33:00,36.0,22.0,29.72,ENE,57,2.0,15.0,56,0.00,,,0.00,,2013-03-24 15:33:00,
2013-03-24 11:43:00,36.0,22.0,29.72,ENE,57,2.0,15.0,56,0.00,,,0.00,,2013-03-24 15:43:00,
2013-03-24 11:53:00,37.0,23.0,29.71,SSW,200,2.0,9.0,56,0.00,,,0.00,,2013-03-24 15:53:00,
2013-03-24 12:03:00,37.0,22.0,29.70,WSW,251,2.0,8.0,55,0.00,,,0.00,,2013-03-24 16:03:00,
2013-03-24 12:13:00,37.0,22.0,29.70,WSW,251,2.0,8.0,55,0.00,,,0.00,,2013-03-24 16:13:00,
2013-03-24 12:23:00,37.0,22.0,29.69,ENE,73,4.0,9.0,55,0.00,,,0.00,,2013-03-24 16:23:00,
2013-03-24 12:33:00,38.0,22.0,29.67,SE,134,3.0,10.0,53,0.00,,,0.00,,2013-03-24 16:33:00,
2013-03-24 12:42:00,38.0,22.0,29.67,SE,134,3.0,10.0,53,0.00,,,0.00,,2013-03-24 16:42:00,
2013-03-24 12:52:00,38.0,22.0,29.65,NNE,30,3.0,15.0,52,0.00,,,0.00,,2013-03-24 16:52:00,
2013-03-24 13:02:00,38.0,22.0,29.64,NE,54,3.0,11.0,52,0.00,,,0.00,,2013-03-24 17:02:00,
2013-03-24 13:12:00,38.0,22.0,29.64,NE,54,3.0,11.0,52,0.00,,,0.00,,2013-03-24 17:12:00,
2013-03-24 13:23:00,39.0,22.0,29.63,SSE,157,2.0,11.0,51,0.00,,,0.00,,2013-03-24 17:23:00,
2013-03-24 13:33:00,40.0,22.0,29.63,ENE,74,4.0,8.0,48,0.00,,,0.00,,2013-03-24 17:33:00,
2013-03-24 13:42:00,40.0,22.0,29.63,ENE,74,4.0,8.0,48,0.00,,,0.00,,2013-03-24 17:42:00,
2013-03-24 13:53:00,41.0,23.0,29.62,SW,217,4.0,8.0,48,0.00,,,0.00,,2013-03-24 17:53:00,
2013-03-24 14:03:00,41.0,23.0,29.62,NNE,32,1.0,10.0,48,0.00,,,0.00,,2013-03-24 18:03:00,
2013-03-24 14:12:00,41.0,23.0,29.62,NNE,32,1.0,10.0,48,0.00,,,0.00,,2013-03-24 18:12:00,
2013-03-24 14:22:00,41.0,22.0,29.62,ESE,106,3.0,8.0,47,0.00,,,0.00,,2013-03-24 18:22:00,
2013-03-24 14:33:00,41.0,23.0,29.62,East,82,2.0,4.0,48,0.00,,,0.00,,2013-03-24 18:33:00,
2013-03-24 14:43:00,41.0,23.0,29.62,East,82,2.0,4.0,48,0.00,,,0.00,,2013-03-24 18:43:00,
2013-03-24 14:52:00,41.0,23.0,29.62,SE,142,3.0,6.0,48,0.00,,,0.00,,2013-03-24 18:52:00,
2013-03-24 15:02:00,40.0,22.0,29.62,NNW,347,2.0,9.0,48,0.00,,,0.00,,2013-03-24 19:02:00,
2013-03-24 15:12:00,40.0,22.0,29.62,NNW,347,2.0,9.0,48,0.00,,,0.00,,2013-03-24 19:12:00,
2013-03-24 15:22:00,40.0,26.0,29.62,North,5,2.0,8.0,57,0.00,,,0.00,,2013-03-24 19:22:00,
2013-03-24 15:32:00,39.0,28.0,29.62,SSE,163,0.0,7.0,65,0.00,,,0.00,,2013-03-24 19:32:00,
2013-03-24 15:43:00,39.0,28.0,29.62,SSE,163,0.0,7.0,65,0.00,,,0.00,,2013-03-24 19:43:00,
2013-03-24 15:52:00,37.0,30.0,29.62,ESE,122,0.0,4.0,76,0.00,,,0.00,,2013-03-24 19:52:00,
2013-03-24 16:03:00,35.0,30.0,29.61,ENE,59,1.0,3.0,83,0.01,,,0.01,,2013-03-24 20:03:00,
2013-03-24 16:12:00,35.0,30.0,29.61,ENE,59,1.0,3.0,83,0.01,,,0.01,,2013-03-24 20:12:00,
2013-03-24 16:22:00,34.0,30.0,29.61,ESE,106,0.0,5.0,85,0.02,,,0.02,,2013-03-24 20:22:00,
2013-03-24 16:32:00,34.0,31.0,29.59,ESE,113,1.0,4.0,87,0.02,,,0.02,,2013-03-24 20:32:00,
2013-03-24 16:42:00,34.0,31.0,29.59,ESE,113,1.0,4.0,87,0.02,,,0.02,,2013-03-24 20:42:00,
2013-03-24 16:52:00,33.0,30.0,29.58,ENE,65,3.0,7.0,88,0.02,,,0.02,,2013-03-24 20:52:00,
2013-03-24 17:02:00,33.0,30.0,29.58,ENE,58,1.0,5.0,88,0.02,,,0.03,,2013-03-24 21:02:00,
2013-03-24 17:12:00,33.0,30.0,29.58,ENE,58,1.0,5.0,88,0.02,,,0.03,,2013-03-24 21:12:00,
2013-03-24 17:22:00,33.0,30.0,29.57,NE,51,4.0,9.0,89,0.01,,,0.03,,2013-03-24 21:22:00,
2013-03-24 17:33:00,32.0,29.0,29.57,SSE,163,0.0,7.0,89,0.01,,,0.03,,2013-03-24 21:33:00,
2013-03-24 17:43:00,32.0,29.0,29.57,SSE,163,0.0,7.0,89,0.01,,,0.03,,2013-03-24 21:43:00,
2013-03-24 17:53:00,32.0,29.0,29.57,ENE,74,0.0,5.0,90,0.01,,,0.03,,2013-03-24 21:53:00,
2013-03-24 18:03:00,32.0,29.0,29.57,SE,142,1.0,5.0,90,0.00,,,0.03,,2013-03-24 22:03:00,
2013-03-24 18:13:00,32.0,29.0,29.57,SE,142,1.0,5.0,90,0.00,,,0.03,,2013-03-24 22:13:00,
2013-03-24 18:23:00,32.0,29.0,29.57,SE,142,1.0,5.0,90,0.00,,,0.03,,2013-03-24 22:23:00,
2013-03-24 18:33:00,32.0,29.0,29.57,SE,142,1.0,5.0,90,0.00,,,0.03,,2013-03-24 22:33:00,
2013-03-24 18:43:00,32.0,29.0,29.57,SE,142,1.0,5.0,90,0.00,,,0.03,,2013-03-24 22:43:00,
2013-03-24 18:53:00,31.0,29.0,29.54,ESE,121,1.0,2.0,91,-99.99,,,-99.99,,2013-03-24 22:53:00,
2013-03-24 19:03:00,31.0,29.0,29.54,NE,46,4.0,8.0,91,-99.99,,,-99.99,,2013-03-24 23:03:00,
2013-03-24 19:12:00,31.0,29.0,29.54,NE,46,4.0,8.0,91,-99.99,,,-99.99,,2013-03-24 23:12:00,
2013-03-24 19:22:00,31.0,29.0,29.53,SE,126,0.0,5.0,91,-99.99,,,-99.99,,2013-03-24 23:22:00,
2013-03-24 19:32:00,31.0,29.0,29.52,WSW,238,1.0,14.0,91,-99.99,,,-99.99,,2013-03-24 23:32:00,
2013-03-24 19:42:00,31.0,29.0,29.52,WSW,238,1.0,14.0,91,-99.99,,,-99.99,,2013-03-24 23:42:00,
2013-03-24 19:53:00,31.0,28.0,29.48,NNE,16,2.0,5.0,90,0.00,,,-99.99,,2013-03-24 23:53:00,
2013-03-24 20:02:00,31.0,28.0,29.48,SSE,155,4.0,9.0,90,0.00,,,-99.99,,2013-03-25 00:02:00,
2013-03-24 20:12:00,31.0,28.0,29.48,SSE,155,4.0,9.0,90,0.00,,,-99.99,,2013-03-25 00:12:00,
2013-03-24 20:22:00,31.0,28.0,29.48,ENE,57,4.0,14.0,89,0.00,,,-99.99,,2013-03-25 00:22:00,
2013-03-24 20:32:00,31.0,28.0,29.47,NE,53,1.0,8.0,88,0.00,,,-99.99,,2013-03-25 00:32:00,
2013-03-24 20:42:00,31.0,28.0,29.47,NE,53,1.0,8.0,88,0.00,,,-99.99,,2013-03-25 00:42:00,
2013-03-24 20:53:00,31.0,28.0,29.47,NNE,17,2.0,8.0,88,0.00,,,-99.99,,2013-03-25 00:53:00,
2013-03-24 21:02:00,31.0,28.0,29.47,NW,311,1.0,7.0,88,0.00,,,-99.99,,2013-03-25 01:02:00,
2013-03-24 21:12:00,31.0,28.0,29.47,NW,311,1.0,7.0,88,0.00,,,-99.99,,2013-03-25 01:12:00,
2013-03-24 21:22:00,32.0,29.0,29.46,SSW,196,2.0,8.0,87,0.00,,,-99.99,,2013-03-25 01:22:00,
2013-03-24 21:32:00,32.0,29.0,29.46,South,181,0.0,10.0,87,0.00,,,-99.99,,2013-03-25 01:32:00,
2013-03-24 21:42:00,32.0,29.0,29.46,South,181,0.0,10.0,87,0.00,,,-99.99,,2013-03-25 01:42:00,
2013-03-24 21:53:00,31.0,28.0,29.45,WSW,255,5.0,9.0,87,0.00,,,-99.99,,2013-03-25 01:53:00,
2013-03-24 22:02:00,31.0,28.0,29.45,ENE,68,4.0,13.0,88,0.00,,,-99.99,,2013-03-25 02:02:00,
2013-03-24 22:12:00,31.0,28.0,29.45,ENE,68,4.0,13.0,88,0.00,,,-99.99,,2013-03-25 02:12:00,
2013-03-24 22:22:00,31.0,28.0,29.45,North,355,2.0,8.0,89,0.00,,,-99.99,,2013-03-25 02:22:00,
2013-03-24 22:33:00,31.0,28.0,29.44,NE,49,3.0,8.0,89,0.00,,,-99.99,,2013-03-25 02:33:00,
2013-03-24 22:42:00,31.0,28.0,29.44,NE,49,3.0,8.0,89,0.00,,,-99.99,,2013-03-25 02:42:00,
2013-03-24 22:52:00,31.0,28.0,29.42,South,182,4.0,11.0,89,0.00,,,-99.99,,2013-03-25 02:52:00,
2013-03-24 23:02:00,31.0,28.0,29.42,SW,219,4.0,14.0,88,0.00,,,-99.99,,2013-03-25 03:02:00,
2013-03-24 23:13:00,31.0,28.0,29.42,SW,219,4.0,14.0,88,0.00,,,-99.99,,2013-03-25 03:13:00,
2013-03-24 23:23:00,31.0,27.0,29.41,South,169,4.0,13.0,86,0.00,,,-99.99,,2013-03-25 03:23:00,
2013-03-24 23:33:00,32.0,28.0,29.41,NNW,341,7.0,12.0,84,0.00,,,-99.99,,2013-03-25 03:33:00,
2013-03-24 23:43:00,32.0,28.0,29.41,NNW,341,7.0,12.0,84,0.00,,,-99.99,,2013-03-25 03:43:00,
2013-03-24 23:53:00,32.0,27.0,29.44,SSE,165,4.0,11.0,83,0.00,,,-99.99,,2013-03-25 03:53:00,